| time (UTC) | temp C | wind direction | speed KPH | gust KPH | rain 1hr cm | rain 24hr cm | rain mn cm | humidity % | barometer mb |
| 20260502194502 | 11 | 280 | 0.0 | 1.6 | 0.08 | 2.18 | 2.18 | 92 | 1011.6 |
| 20260502193006 | 11 | 281 | 0.0 | 1.6 | 0.13 | 2.16 | 2.16 | 91 | 1011.5 |
| 20260502191509 | 11 | 280 | 0.0 | 4.8 | 0.18 | 2.16 | 2.16 | 91 | 1011.5 |
| 20260502190014 | 11 | 280 | 0.0 | 3.2 | 0.23 | 2.11 | 2.11 | 91 | 1011.6 |
| 20260502184538 | 11 | 280 | 0.0 | 4.8 | 0.36 | 2.08 | 2.08 | 91 | 1011.6 |
| 20260502183006 | 12 | 280 | 0.0 | 6.4 | 0.43 | 2.03 | 2.03 | 91 | 1011.6 |
| 20260502181504 | 12 | 279 | 0.0 | 11.3 | 0.64 | 1.96 | 1.96 | 90 | 1011.7 |
| 20260502163039 | 13 | 232 | 0.0 | 0.0 | 0.30 | 0.91 | 0.91 | 87 | 1012.2 |
| 20260502161521 | 13 | 231 | 0.0 | 1.6 | 0.36 | 0.84 | 0.84 | 86 | 1012.3 |
| 20260502151519 | 15 | 231 | 0.0 | 6.4 | 0.46 | 0.46 | 0.46 | 78 | 1013.4 |
| 20260502123026 | 18 | 305 | 1.6 | 6.4 | 0.00 | 0.00 | 0.00 | 66 | 1014.8 |
| 20260502121512 | 18 | 305 | 0.0 | 6.4 | 0.00 | 0.00 | 0.00 | 66 | 1015.0 |
| 20260502114520 | 18 | 305 | 0.0 | 4.8 | 0.00 | 0.05 | 0.00 | 66 | 1015.5 |
| 20260502113024 | 18 | 305 | 0.0 | 3.2 | 0.00 | 0.05 | 0.00 | 69 | 1015.4 |
| 20260502111527 | 17 | 305 | 1.6 | 8.0 | 0.00 | 0.13 | 0.00 | 69 | 1015.7 |
| 20260502110012 | 17 | 302 | 0.0 | 4.8 | 0.00 | 0.13 | 0.00 | 70 | 1016.2 |
| 20260502104518 | 16 | 302 | 0.0 | 4.8 | 0.00 | 0.13 | 0.00 | 71 | 1016.5 |
| 20260502103024 | 16 | 300 | 1.6 | 6.4 | 0.00 | 0.13 | 0.00 | 72 | 1016.8 |
| 20260502101504 | 16 | 113 | 0.0 | 9.7 | 0.00 | 0.13 | 0.00 | 73 | 1017.0 |
| 20260502091524 | 14 | 5 | 0.0 | 4.8 | 0.00 | 0.13 | 0.00 | 86 | 1017.2 |
| 20260502071520 | 10 | 261 | 0.0 | 0.0 | 0.00 | 0.13 | 0.00 | 92 | 1018.1 |
| 20260502070030 | 10 | 261 | 0.0 | 0.0 | 0.00 | 0.13 | 0.00 | 92 | 1018.1 |
| 20260502064538 | 9 | 261 | 0.0 | 0.0 | 0.00 | 0.13 | 0.00 | 92 | 1018.1 |
| 20260502063010 | 9 | 261 | 0.0 | 0.0 | 0.00 | 0.13 | 0.00 | 92 | 1018.1 |
| 20260502061516 | 8 | 261 | 0.0 | 0.0 | 0.00 | 0.13 | 0.00 | 92 | 1018.2 |
| 20260502060019 | 8 | 261 | 0.0 | 0.0 | 0.00 | 0.13 | 0.00 | 91 | 1018.3 |
| 20260502054526 | 8 | 261 | 0.0 | 0.0 | 0.00 | 0.13 | 0.00 | 91 | 1018.4 |
| 20260502053029 | 8 | 261 | 0.0 | 0.0 | 0.00 | 0.13 | 0.00 | 91 | 1018.5 |
| 20260502051519 | 8 | 261 | 0.0 | 0.0 | 0.00 | 0.13 | 0.00 | 91 | 1018.4 |
| 20260502050024 | 8 | 261 | 0.0 | 0.0 | 0.00 | 0.13 | 0.00 | 91 | 1018.3 |
| 20260502044523 | 8 | 261 | 0.0 | 0.0 | 0.00 | 0.13 | 0.00 | 91 | 1018.2 |
| 20260502043027 | 8 | 261 | 0.0 | 0.0 | 0.00 | 0.13 | 0.00 | 91 | 1018.2 |
| 20260502041526 | 8 | 261 | 0.0 | 0.0 | 0.00 | 0.13 | 0.00 | 91 | 1018.2 |
| 20260502040016 | 8 | 261 | 0.0 | 0.0 | 0.00 | 0.13 | 0.00 | 91 | 1018.5 |
| 20260502034533 | 7 | 261 | 0.0 | 0.0 | 0.00 | 0.13 | 0.00 | 90 | 1018.7 |
| 20260502033025 | 7 | 261 | 0.0 | 0.0 | 0.00 | 0.13 | 0.00 | 89 | 1018.8 |
| 20260502031528 | 8 | 261 | 0.0 | 0.0 | 0.00 | 0.13 | 0.00 | 90 | 1018.8 |
| 20260502030028 | 8 | 261 | 0.0 | 4.8 | 0.00 | 0.13 | 0.00 | 90 | 1018.8 |
| 20260502024519 | 8 | 261 | 0.0 | 1.6 | 0.00 | 0.13 | 0.00 | 90 | 1018.8 |
| 20260502023022 | 8 | 261 | 0.0 | 4.8 | 0.00 | 0.13 | 0.00 | 89 | 1019.0 |
| 20260502021525 | 8 | 261 | 1.6 | 6.4 | 0.00 | 0.13 | 0.00 | 89 | 1019.1 |
| 20260502020027 | 8 | 261 | 0.0 | 0.0 | 0.00 | 0.13 | 0.00 | 89 | 1019.1 |
| 20260502014547 | 8 | 261 | 0.0 | 6.4 | 0.00 | 0.13 | 0.00 | 89 | 1019.3 |
| 20260502013020 | 8 | 261 | 0.0 | 3.2 | 0.00 | 0.13 | 0.00 | 88 | 1019.3 |
| 20260502011522 | 8 | 261 | 0.0 | 0.0 | 0.00 | 0.13 | 0.00 | 88 | 1019.4 |
| 20260502010010 | 8 | 261 | 0.0 | 0.0 | 0.00 | 0.13 | 0.00 | 88 | 1019.4 |
| 20260502004512 | 8 | 261 | 0.0 | 0.0 | 0.00 | 0.13 | 0.00 | 87 | 1019.6 |
| 20260502003017 | 8 | 261 | 0.0 | 0.0 | 0.00 | 0.13 | 0.00 | 87 | 1019.6 |
| 20260502001522 | 8 | 261 | 0.0 | 0.0 | 0.00 | 0.13 | 0.00 | 87 | 1019.9 |
| 20260502000015 | 8 | 261 | 0.0 | 0.0 | 0.00 | 0.13 | 0.00 | 87 | 1019.9 |
| 20260501234508 | 8 | 261 | 0.0 | 0.0 | 0.00 | 0.13 | 0.00 | 86 | 1020.0 |
| 20260501233014 | 8 | 261 | 0.0 | 0.0 | 0.00 | 0.13 | 0.00 | 86 | 1020.2 |
| 20260501231524 | 8 | 261 | 0.0 | 0.0 | 0.00 | 0.13 | 0.00 | 85 | 1020.3 |
| 20260501230023 | 8 | 261 | 0.0 | 0.0 | 0.00 | 0.13 | 0.00 | 85 | 1020.5 |
| 20260501224508 | 9 | 261 | 0.0 | 0.0 | 0.00 | 0.13 | 0.13 | 84 | 1020.4 |
| 20260501223011 | 9 | 261 | 0.0 | 0.0 | 0.00 | 0.13 | 0.13 | 84 | 1020.4 |
| 20260501221522 | 10 | 261 | 0.0 | 0.0 | 0.00 | 0.13 | 0.13 | 84 | 1020.4 |
| 20260501220020 | 10 | 261 | 0.0 | 0.0 | 0.00 | 0.13 | 0.13 | 83 | 1020.4 |
| 20260501214534 | 10 | 261 | 1.6 | 6.4 | 0.00 | 0.13 | 0.13 | 83 | 1020.4 |
| 20260501213008 | 10 | 261 | 0.0 | 4.8 | 0.00 | 0.13 | 0.13 | 82 | 1020.3 |
| 20260501211510 | 11 | 261 | 0.0 | 4.8 | 0.00 | 0.13 | 0.13 | 81 | 1020.3 |
| 20260501210016 | 11 | 261 | 0.0 | 4.8 | 0.00 | 0.13 | 0.13 | 81 | 1020.3 |
| 20260501204520 | 11 | 261 | 1.6 | 6.4 | 0.00 | 0.13 | 0.13 | 80 | 1020.3 |
| 20260501203029 | 11 | 261 | 3.2 | 11.3 | 0.00 | 0.13 | 0.13 | 80 | 1020.3 |
| 20260501201509 | 12 | 317 | 0.0 | 4.8 | 0.00 | 0.13 | 0.13 | 80 | 1020.2 |
| 20260501200016 | 12 | 317 | 0.0 | 4.8 | 0.00 | 0.13 | 0.13 | 79 | 1020.1 |